カタログに戻る

COSMOS 2251 DEB

運用中LEO
NORAD 35439·DEBRIS·🇷🇺 Russia

打ち上げ Jun 16, 1993 から Plesetsk Cosmodrome

Loading…

次のパス (今後24時間)

TLE

最新Source: Space-Track

元期: Sep 13, 2026, 15:19 UTC

1 35439U 93036AKH 26256.63828933  .00001775  00000-0  10752-2 0  9995
2 35439  74.0199  23.1929 0238263 130.5870 231.6265 13.93950836877903

AllMySatでCOSMOS 2251 DEBをリアルタイム追跡

Download on the App Store